Wind_Speed
6 6 5 5 5 7 8 7 4 2 3 4 5 7 7 4 2 2 2 2 2 1 1 0 0 0 0 0 1 2 4 5 6 6 6 7 7 7 7 7 7 7 7 7 7 6 6 5 5
9 9 8 7 7 7 8 7 5 6 6 5 5 7 8 6 3 4 4 3 3 2 2 1 1 1 1 1 2 3 3 5 5 6 7 7 7 7 7 8 8 8 8 8 8 8 7 6 6
11 11 10 9 8 8 8 7 7 9 8 7 7 10 10 8 5 5 5 4 3 3 2 2 2 2 2 2 3 4 4 5 6 6 7 7 8 8 8 8 9 9 9 9 9 9 8 8 7
13 12 12 10 10 9 10 9 9 12 12 11 11 12 12 9 7 6 5 5 4 3 3 4 4 4 3 3 4 5 5 6 6 7 8 7 8 8 9 9 10 11 11 10 10 10 10 9 8
14 13 12 11 11 12 11 10 10 15 17 15 15 16 14 10 8 7 6 5 5 4 4 4 4 5 4 4 5 6 6 6 7 7 8 8 8 9 10 10 11 12 12 12 12 12 12 11 10
15 13 11 10 11 12 11 10 12 16 19 19 19 20 16 12 9 8 7 6 6 5 5 5 5 4 4 5 6 7 7 8 8 8 9 10 10 11 11 12 12 13 13 14 14 14 14 13 11
15 13 12 11 10 11 11 13 14 17 20 23 23 21 19 14 9 9 8 8 7 7 6 5 5 4 5 5 6 7 8 9 10 11 11 12 12 13 13 14 14 14 15 15 16 16 16 15 14
14 13 13 12 13 13 13 14 17 20 23 25 24 22 18 14 10 9 10 9 8 7 7 6 5 4 5 6 7 8 10 11 12 12 13 13 13 14 15 15 16 16 16 16 17 17 17 17 16
13 12 13 14 15 15 15 16 19 21 25 26 25 22 18 15 13 11 10 9 9 8 7 5 4 5 6 7 8 9 10 11 13 14 14 14 15 16 17 17 17 17 17 18 18 18 19 19 18
12 12 13 14 16 16 17 18 20 22 24 25 24 23 21 17 15 13 12 11 10 9 7 5 5 5 7 8 9 10 12 13 14 14 15 15 16 17 17 18 18 18 18 18 19 19 19 20 20
10 11 12 14 15 15 17 19 21 23 25 26 24 21 18 18 16 14 13 12 11 9 7 5 5 7 8 9 10 12 14 15 16 16 16 16 16 16 17 18 18 19 19 19 18 19 19 20 21
7 8 10 11 12 14 16 18 21 24 26 26 25 23 20 18 15 14 15 12 10 9 7 6 7 8 9 10 11 13 14 16 16 16 16 16 16 15 16 17 16 17 18 18 18 19 19 19 20
6 7 8 9 10 13 15 18 20 23 24 24 22 21 19 17 17 17 16 13 11 9 8 9 9 10 10 12 12 13 14 15 15 15 15 15 15 15 15 16 16 17 18 17 17 17 17 18 19
4 5 7 10 11 13 15 16 18 20 22 21 21 20 18 16 16 16 14 10 9 9 8 8 8 9 10 11 11 12 13 14 14 15 14 14 15 15 14 15 15 16 17 17 17 17 17 18 19
5 6 8 10 12 14 16 16 18 17 18 16 17 17 16 16 14 12 10 10 9 8 8 8 8 9 10 11 11 12 13 14 14 14 14 14 14 14 14 14 14 14 15 16 17 17 18 18 19
6 7 9 12 14 15 16 17 18 18 15 15 14 11 10 11 10 10 9 8 9 7 7 7 8 9 10 12 12 12 12 13 13 13 13 13 13 13 13 14 14 14 15 16 17 17 18 19 20
8 11 12 14 15 16 18 17 17 17 14 11 8 7 7 8 8 7 8 7 6 6 5 6 8 10 11 12 12 11 11 12 12 12 12 12 12 13 13 14 14 15 16 17 17 18 19 19 20
11 14 15 16 16 17 18 16 14 14 11 9 7 5 5 7 7 5 6 5 5 5 5 7 9 9 10 10 10 10 10 11 12 12 12 13 13 13 13 13 14 15 16 16 17 18 18 19 20
13 14 16 16 16 17 17 15 14 13 9 6 2 2 4 5 5 6 5 5 4 4 5 6 7 7 8 8 8 9 10 10 10 10 11 12 12 13 13 14 14 15 16 16 17 18 18 19 19
12 14 15 16 16 16 15 13 12 12 9 6 3 1 3 4 6 7 5 4 3 3 5 5 6 6 7 8 8 9 9 10 10 10 11 12 13 13 13 14 14 15 15 16 17 18 18 18 19
12 13 14 15 16 15 13 11 10 10 9 7 6 4 5 4 4 4 3 2 2 3 4 5 6 6 7 7 8 9 9 9 10 10 11 12 12 12 13 14 15 15 16 17 17 18 19 20 20
13 13 13 13 14 14 10 9 9 9 9 8 7 6 5 4 3 3 1 2 2 3 3 4 5 6 6 6 7 8 9 9 10 10 11 12 12 13 14 16 16 17 18 19 19 20 21 22 23
12 12 11 11 11 10 8 7 7 7 8 8 8 6 5 4 3 2 2 1 2 2 3 4 4 4 5 6 7 8 9 10 11 11 12 12 14 15 17 18 19 20 21 22 22 23 23 24 25
11 10 10 8 8 7 7 5 6 6 7 7 8 7 5 4 3 3 2 1 0 1 2 2 3 4 5 7 8 8 9 10 11 12 13 15 16 17 19 20 21 22 23 24 24 25 26 27 27
10 9 9 8 7 7 6 4 4 5 6 7 7 6 5 4 3 2 2 2 1 1 2 3 3 5 6 7 8 9 10 11 13 14 15 17 18 19 21 22 22 23 24 25 26 27 28 29 29
9 9 9 9 9 7 5 4 2 4 6 7 7 6 5 4 3 2 2 1 0 1 2 3 4 5 6 7 9 10 11 12 14 15 17 18 20 21 22 23 24 25 26 26 27 28 29 30 31
9 9 10 10 10 8 5 2 1 2 4 6 6 6 5 5 4 3 2 2 1 1 2 3 5 5 6 8 9 10 12 13 15 17 18 20 22 23 25 26 27 27 28 29 29 30 31 31 31
10 10 10 10 10 8 6 4 3 2 2 4 4 5 5 4 4 3 2 1 0 1 3 4 4 5 7 8 10 11 13 14 16 18 20 22 23 25 27 28 29 30 30 31 31 32 32 32 32
11 11 11 10 11 11 10 7 6 5 4 3 3 4 4 4 3 3 2 1 1 2 3 5 6 7 9 10 11 13 14 16 18 19 22 24 26 27 29 30 31 32 33 33 33 33 33 33 33
13 12 12 12 11 11 11 9 7 6 5 4 4 4 3 3 3 2 2 3 3 4 5 6 8 9 11 12 14 15 16 18 20 22 24 26 27 29 30 32 33 33 34 35 35 35 35 34 34
Wind_Direction
300 294 291 294 295 294 287 298 289 274 254 257 287 299 309 323 328 297 281 258 236 191 183 211 244 259 270 332 322 322 324 324 325 325 323 324 324 327 333 337 338 336 333 330 330 334 339 344 349
295 293 293 294 299 296 296 294 281 266 256 250 272 290 287 292 277 264 256 253 243 222 219 230 244 257 270 284 290 296 301 305 308 310 312 315 314 312 316 321 322 322 320 319 319 319 320 325 329
289 290 290 294 300 297 298 297 305 290 275 263 280 289 278 269 260 256 249 244 242 240 236 240 251 257 262 276 281 283 290 296 299 300 304 307 310 307 304 310 312 312 311 309 309 309 309 311 315
285 286 289 294 295 294 296 301 304 305 288 282 293 294 284 272 268 262 245 237 232 235 241 244 253 256 255 266 279 283 287 292 294 295 296 299 302 304 301 302 303 303 302 302 301 301 303 305 306
283 283 285 288 282 285 289 302 291 292 291 292 293 294 287 281 274 265 248 241 236 232 238 245 252 253 259 271 282 287 290 293 294 292 291 292 292 294 294 294 294 295 294 294 294 295 296 298 299
283 283 280 277 274 282 291 292 287 283 285 289 290 294 282 275 264 255 249 244 234 226 227 236 247 250 263 275 285 290 293 293 291 290 288 288 288 287 287 288 288 288 289 288 288 289 289 289 290
279 278 273 265 261 269 277 286 285 284 284 288 287 290 282 265 257 248 248 248 240 226 215 218 239 254 271 285 293 295 296 297 293 289 288 286 286 286 285 285 286 285 285 287 284 282 283 283 282
274 268 262 254 250 253 265 274 279 282 281 284 287 286 281 264 251 242 245 243 220 213 220 222 227 251 272 291 297 297 296 297 295 292 289 288 287 286 285 283 283 282 282 284 281 277 277 277 277
272 263 257 253 252 252 258 265 271 274 278 280 284 284 273 260 254 235 227 222 214 212 218 233 253 255 276 291 296 298 299 299 298 295 292 289 288 287 285 281 281 279 278 279 278 273 270 271 273
269 261 257 257 260 263 261 262 267 273 276 280 280 280 264 255 246 230 229 222 215 214 219 238 259 277 287 291 296 300 298 298 298 296 295 293 290 288 286 282 281 280 278 278 275 271 269 267 268
266 264 259 258 266 271 269 267 268 272 274 279 279 276 260 251 242 229 229 221 213 216 223 242 264 287 296 296 295 298 297 297 296 297 296 292 290 289 287 287 285 282 280 279 278 272 270 268 266
278 275 272 272 272 275 278 276 272 274 274 276 273 271 263 258 247 231 226 221 217 222 236 256 278 288 294 295 293 294 296 296 297 295 294 293 292 290 289 290 289 285 284 279 279 274 270 269 267
321 312 308 305 297 289 287 287 283 280 277 277 273 268 261 257 248 232 226 220 212 230 243 255 270 280 286 289 292 295 296 295 295 294 295 294 291 288 286 289 288 286 284 280 279 275 271 269 268
342 333 323 321 324 317 307 301 294 287 281 279 276 267 260 253 240 229 219 221 223 233 245 256 269 276 286 292 294 295 293 291 291 294 296 295 293 290 289 290 291 286 281 280 279 278 272 272 271
346 345 345 339 331 327 318 311 312 301 292 283 279 267 254 245 234 225 232 236 226 229 243 259 276 284 294 301 299 298 296 295 295 295 297 296 295 293 291 291 293 290 283 281 279 278 276 274 271
348 354 349 342 337 333 327 322 322 317 306 291 279 257 233 235 231 221 221 221 220 223 244 271 287 295 301 307 306 305 303 303 302 300 299 297 296 293 295 292 291 289 285 281 280 278 277 275 272
348 351 347 338 335 334 335 332 327 325 319 300 277 240 226 214 211 202 201 203 226 239 252 276 290 298 302 308 310 310 309 308 307 305 303 302 302 299 297 294 293 290 286 284 282 279 278 275 272
348 347 343 336 335 337 342 342 339 335 330 305 277 244 227 194 196 183 188 207 229 252 270 282 291 295 299 306 310 312 312 309 309 308 306 304 304 304 300 296 294 291 288 287 285 282 279 277 274
346 343 336 333 335 339 345 344 344 345 343 331 302 230 216 175 165 159 176 195 226 257 279 292 296 300 301 306 313 318 320 318 314 309 307 307 306 305 302 299 297 294 292 291 289 286 284 280 276
333 332 331 332 335 339 344 353 356 355 1 357 354 271 205 159 158 161 179 203 234 275 290 294 296 302 310 315 319 322 320 318 317 316 315 313 311 311 309 308 305 302 298 294 292 291 289 286 282
319 323 330 333 337 339 340 355 8 24 27 22 24 55 89 127 128 138 171 231 260 283 294 298 301 304 314 319 323 324 323 323 322 322 321 319 319 318 315 313 311 309 305 301 297 295 292 289 286
311 317 325 325 330 336 343 355 8 25 36 40 42 56 61 76 100 123 179 243 266 278 293 306 313 315 320 327 329 331 334 335 333 331 328 326 325 323 320 316 313 311 309 306 302 299 294 291 288
306 312 317 325 326 333 345 357 15 24 33 36 37 44 53 65 92 127 158 191 251 280 308 322 320 321 328 336 339 341 342 341 339 337 335 333 330 326 322 319 316 313 310 307 303 299 296 292 289
304 308 311 317 331 330 340 359 28 41 39 40 38 44 55 61 88 116 124 140 220 303 334 343 344 345 346 346 346 345 343 341 341 342 340 338 334 329 326 323 319 315 311 307 304 301 298 294 290
298 297 301 309 322 329 339 349 34 46 44 45 40 46 51 58 82 109 116 101 58 4 345 353 356 353 348 346 344 343 342 342 344 344 342 339 336 333 329 325 322 318 314 311 307 304 301 297 293
305 295 295 302 310 310 323 341 52 51 49 52 48 48 57 69 91 110 103 103 87 334 343 351 347 343 343 342 340 340 341 343 343 342 341 339 337 334 330 327 324 321 319 316 312 308 305 301 297
299 292 287 290 294 292 300 341 338 35 42 46 49 56 66 77 90 102 100 107 111 353 341 335 330 330 333 336 337 338 340 340 339 337 337 336 334 333 331 329 327 324 321 318 315 312 309 305 301
287 285 274 277 283 285 282 296 340 320 6 33 45 50 57 73 87 98 95 71 357 319 316 316 317 322 327 329 331 333 334 333 333 332 332 331 330 330 330 328 326 325 323 320 317 314 311 307 303
280 275 277 273 272 273 280 282 284 296 308 337 2 22 45 49 58 64 45 339 308 311 315 320 321 320 321 322 323 324 324 325 327 328 329 329 328 328 327 326 325 324 323 320 318 315 312 308 305
274 272 272 273 273 272 273 281 285 280 290 311 325 339 7 19 19 12 353 332 323 321 321 321 319 318 319 318 318 317 318 320 323 325 326 326 327 327 327 326 326 324 323 320 318 316 312 309 306
Height
5922 5921 5921 5921 5922 5920 5918 5917 5915 5914 5913 5912 5912 5912 5914 5915 5916 5918 5915 5914 5913 5912 5912 5912 5913 5913 5913 5913 5913 5913 5913 5912 5912 5911 5911 5911 5910 5910 5910 5909 5908 5908 5907 5907 5906 5906 5906 5906 5905
5921 5920 5920 5920 5920 5919 5917 5916 5913 5911 5910 5909 5910 5912 5913 5914 5914 5914 5913 5913 5912 5912 5912 5912 5912 5912 5913 5913 5912 5912 5912 5912 5911 5911 5910 5910 5910 5909 5909 5908 5908 5907 5907 5906 5906 5906 5905 5905 5905
5919 5919 5919 5919 5918 5917 5915 5913 5911 5909 5908 5907 5908 5910 5911 5912 5911 5911 5912 5911 5911 5911 5911 5911 5911 5912 5912 5912 5912 5911 5911 5911 5910 5910 5910 5909 5909 5908 5908 5907 5907 5906 5906 5905 5905 5905 5905 5905 5904
5917 5917 5918 5918 5916 5914 5912 5910 5908 5907 5906 5905 5906 5908 5909 5910 5909 5910 5910 5910 5910 5910 5910 5910 5910 5911 5911 5910 5910 5910 5910 5909 5909 5908 5908 5908 5907 5907 5907 5906 5906 5905 5905 5904 5904 5904 5904 5904 5904
5915 5916 5916 5916 5914 5912 5910 5908 5906 5906 5904 5903 5904 5906 5906 5907 5907 5908 5908 5908 5908 5909 5909 5909 5909 5909 5909 5909 5908 5908 5908 5907 5907 5907 5906 5906 5905 5905 5905 5904 5904 5903 5903 5903 5902 5902 5902 5902 5902
5913 5913 5914 5913 5912 5908 5906 5904 5903 5903 5902 5901 5902 5903 5904 5905 5904 5905 5905 5906 5906 5906 5906 5907 5907 5907 5907 5907 5907 5906 5906 5905 5905 5905 5904 5904 5903 5903 5902 5902 5902 5901 5901 5901 5900 5900 5900 5900 5900
5910 5910 5910 5910 5908 5906 5903 5901 5900 5900 5899 5899 5899 5899 5900 5900 5900 5901 5902 5903 5904 5903 5903 5903 5905 5905 5905 5905 5905 5904 5904 5903 5903 5902 5901 5901 5900 5900 5900 5900 5899 5898 5898 5898 5897 5897 5897 5897 5897
5907 5908 5907 5906 5905 5903 5901 5899 5898 5898 5897 5897 5896 5896 5896 5897 5896 5897 5899 5900 5900 5901 5901 5901 5901 5902 5902 5902 5902 5902 5901 5901 5900 5899 5899 5898 5898 5897 5896 5896 5895 5895 5895 5894 5894 5894 5894 5894 5894
5904 5905 5903 5902 5901 5900 5899 5898 5896 5895 5894 5893 5893 5893 5894 5893 5893 5893 5895 5896 5897 5897 5898 5899 5899 5900 5900 5900 5900 5899 5899 5898 5897 5896 5895 5895 5894 5894 5893 5892 5891 5891 5891 5891 5890 5890 5890 5890 5890
5901 5901 5901 5899 5898 5897 5897 5895 5894 5892 5891 5890 5889 5889 5890 5890 5889 5890 5891 5891 5893 5894 5895 5897 5897 5898 5898 5898 5897 5897 5896 5895 5894 5893 5892 5891 5891 5890 5889 5888 5887 5887 5887 5887 5886 5886 5886 5886 5887
5898 5898 5898 5897 5896 5895 5894 5892 5890 5888 5887 5886 5884 5883 5882 5883 5884 5885 5887 5887 5889 5891 5892 5894 5894 5895 5895 5895 5894 5894 5893 5892 5890 5889 5888 5887 5886 5886 5885 5884 5883 5883 5883 5883 5883 5882 5882 5882 5883
5896 5895 5895 5894 5893 5892 5890 5888 5886 5884 5883 5881 5880 5879 5878 5879 5880 5882 5885 5885 5886 5887 5890 5891 5891 5892 5892 5891 5891 5891 5890 5888 5887 5886 5884 5884 5883 5882 5881 5880 5879 5879 5879 5879 5879 5878 5878 5878 5879
5894 5894 5892 5891 5890 5888 5886 5884 5882 5880 5878 5876 5875 5873 5873 5873 5875 5878 5880 5881 5884 5886 5887 5888 5889 5889 5889 5889 5888 5888 5887 5885 5884 5883 5881 5880 5879 5878 5878 5877 5876 5875 5875 5875 5875 5874 5874 5874 5874
5893 5892 5890 5889 5887 5885 5883 5881 5878 5875 5873 5872 5870 5868 5869 5869 5869 5870 5875 5878 5881 5883 5884 5885 5886 5886 5886 5885 5885 5884 5883 5882 5881 5880 5878 5876 5875 5874 5874 5873 5872 5872 5872 5871 5871 5871 5871 5870 5870
5892 5891 5890 5887 5885 5883 5880 5877 5874 5871 5869 5867 5866 5864 5863 5863 5864 5867 5871 5875 5878 5880 5881 5882 5882 5881 5882 5882 5881 5881 5880 5878 5877 5876 5875 5873 5872 5871 5870 5870 5869 5868 5868 5868 5867 5867 5867 5866 5866
5891 5890 5888 5886 5883 5881 5879 5874 5870 5866 5865 5862 5861 5860 5860 5860 5862 5863 5868 5871 5873 5876 5878 5879 5880 5879 5879 5879 5878 5877 5876 5875 5874 5873 5872 5870 5868 5867 5867 5866 5865 5864 5864 5864 5863 5863 5862 5862 5861
5888 5887 5885 5884 5881 5878 5875 5871 5867 5864 5860 5859 5859 5858 5857 5859 5861 5862 5865 5869 5871 5874 5875 5877 5877 5877 5876 5876 5875 5874 5873 5872 5870 5869 5868 5867 5865 5864 5863 5862 5861 5860 5860 5859 5859 5858 5858 5857 5856
5886 5885 5883 5881 5879 5876 5873 5869 5866 5862 5858 5857 5856 5857 5857 5858 5860 5861 5864 5867 5870 5872 5874 5875 5875 5874 5874 5873 5872 5872 5871 5869 5868 5866 5865 5863 5862 5861 5859 5858 5857 5857 5856 5855 5854 5853 5853 5852 5851
5884 5883 5882 5880 5878 5875 5872 5868 5865 5861 5857 5855 5854 5855 5857 5858 5859 5861 5865 5867 5869 5871 5872 5873 5872 5872 5872 5871 5871 5869 5868 5867 5865 5864 5862 5860 5859 5858 5856 5855 5854 5853 5852 5851 5850 5849 5848 5846 5846
5883 5882 5880 5878 5876 5873 5871 5867 5863 5860 5857 5856 5854 5854 5854 5857 5859 5860 5863 5866 5868 5869 5870 5870 5870 5870 5870 5869 5868 5867 5866 5864 5863 5861 5859 5858 5856 5854 5853 5851 5850 5849 5848 5846 5845 5844 5842 5841 5841
5882 5881 5879 5876 5874 5872 5870 5868 5864 5862 5859 5857 5855 5853 5854 5856 5857 5859 5862 5864 5866 5867 5868 5868 5868 5868 5868 5867 5865 5865 5863 5862 5860 5858 5857 5855 5853 5851 5850 5848 5846 5845 5843 5842 5840 5839 5837 5836 5835
5880 5879 5877 5874 5872 5870 5869 5868 5865 5863 5861 5860 5858 5857 5856 5857 5858 5860 5862 5863 5865 5866 5866 5866 5866 5866 5865 5864 5863 5862 5861 5859 5858 5856 5854 5852 5850 5848 5846 5845 5842 5841 5839 5837 5835 5833 5832 5830 5829
5878 5877 5875 5873 5871 5869 5868 5867 5866 5863 5861 5860 5859 5858 5858 5858 5858 5860 5861 5863 5864 5864 5864 5864 5864 5864 5863 5862 5861 5860 5858 5857 5855 5854 5852 5850 5848 5845 5843 5840 5838 5836 5834 5831 5829 5827 5826 5824 5822
5875 5875 5873 5871 5870 5868 5867 5866 5865 5863 5862 5860 5859 5858 5858 5858 5858 5859 5861 5862 5862 5862 5862 5862 5862 5861 5861 5859 5858 5857 5856 5855 5853 5851 5849 5847 5844 5841 5839 5836 5833 5831 5828 5826 5823 5821 5818 5816 5814
5874 5873 5872 5870 5868 5867 5866 5865 5865 5863 5861 5860 5859 5858 5857 5857 5858 5859 5860 5860 5861 5861 5861 5861 5860 5859 5858 5857 5856 5855 5854 5852 5850 5848 5845 5843 5841 5838 5835 5832 5829 5825 5822 5819 5816 5813 5811 5808 5806
5872 5871 5871 5869 5867 5866 5865 5864 5865 5862 5861 5860 5859 5858 5858 5857 5858 5859 5859 5859 5860 5859 5859 5859 5858 5858 5857 5856 5854 5853 5852 5850 5847 5845 5842 5840 5837 5834 5830 5827 5823 5820 5816 5813 5809 5806 5803 5800 5797
5869 5868 5868 5866 5865 5864 5864 5864 5863 5862 5861 5860 5860 5859 5858 5858 5858 5858 5858 5858 5858 5858 5858 5857 5857 5856 5855 5854 5852 5851 5849 5847 5844 5842 5839 5836 5832 5829 5826 5822 5818 5814 5810 5806 5802 5798 5795 5791 5788
5867 5866 5866 5864 5863 5862 5863 5862 5863 5861 5860 5860 5859 5858 5857 5857 5857 5857 5857 5857 5857 5857 5856 5856 5855 5854 5853 5852 5850 5848 5846 5844 5841 5838 5835 5832 5828 5824 5820 5816 5812 5808 5803 5799 5795 5790 5786 5782 5779
5864 5864 5862 5862 5861 5860 5859 5862 5861 5860 5859 5859 5859 5858 5857 5856 5856 5856 5856 5856 5856 5855 5855 5854 5853 5852 5850 5849 5847 5845 5843 5840 5838 5834 5831 5827 5823 5819 5815 5811 5806 5801 5797 5792 5787 5783 5778 5774 5770
5860 5860 5859 5859 5858 5857 5857 5860 5858 5857 5857 5856 5856 5856 5855 5854 5854 5854 5854 5854 5853 5852 5852 5851 5850 5848 5847 5845 5843 5841 5839 5836 5833 5830 5826 5822 5818 5814 5809 5805 5800 5795 5789 5784 5779 5774 5769 5765 5761